Location: La Bastide
(43.1661°N, 1.2755°E)
Time: 22:37:44
(UTC+00:00)

Daily predictions for brighter satellites

Satellite Brightness Start Highest point End
(mag) Time Altitude Azimuth Time Altitude Azimuth Time Altitude Azimuth
Cosmos 2266 Rocket 4.0 16:44:38 10° N 16:50:41 58° E 16:56:36 10° SSE
Cosmos 1606 Rocket 4.0 16:46:52 10° SSE 16:50:59 41° E 16:55:09 10° NNE
Cosmos 1503 Rocket 4.1 16:47:59 10° SSW 16:53:13 84° WNW 16:58:27 10° NNE
EXPRESS MD2 3.5 16:54:01 10° SSW 16:56:05 29° SE 16:58:48 10° ENE
Cosmos 1484 Rocket 2.7 16:54:43 10° S 16:58:13 76° W 17:01:43 10° NNW
Thor Agena Rocket 3.5 16:54:15 10° SSE 16:59:23 66° ENE 17:04:29 10° N
CZ-4C R/B 3.1 16:53:29 10° NW 17:00:43 86° NE 17:09:35 10° SE
UNK 3.8 16:56:15 10° NNE 17:00:46 58° E 17:05:14 10° S
Cosmos 1743 3.0 16:59:46 10° NNW 17:02:58 57° W 17:06:07 10° S
NOSS 2-3 (D) 3.2 16:59:22 10° SSW 17:03:04 67° ESE 17:06:48 10° NE
NOSS 2-3 (E) 3.1 17:00:02 10° SSW 17:03:44 75° ESE 17:07:27 10° NE
Cosmos 1354 Rocket 4.0 16:58:58 10° SSW 17:04:14 85° ESE 17:09:31 10° NNE
IGS 5A 3.5 17:01:42 10° S 17:05:39 81° W 17:09:38 10° NNW
Cosmos-2242 4.3 17:04:55 10° SE 17:07:59 20° E 17:11:02 10° NE
USA 238 DEB 3.7 17:02:21 10° SSW 17:08:10 54° ESE 17:14:30 10° NE
USA 238 3.7 17:02:28 10° SSW 17:08:17 53° ESE 17:14:37 10° NE
MOS 1 Rocket 3.9 17:04:28 10° SE 17:09:03 39° ENE 17:13:53 10° N
Cosmos 2151 3.2 17:06:58 10° NNW 17:11:07 72° W 17:15:15 10° S
Cosmos 1898 Rocket 4.4 17:07:44 10° SSE 17:12:05 28° E 17:16:28 10° NE
Gbstr 26 Del rocket 3.3 17:09:05 10° WSW 17:13:12 50° NNW 17:16:29 13° NE
Cosmos 1726 Rocket 3.8 17:08:58 10° S 17:13:29 54° E 17:17:57 10° NNE
AQUARIUS 4.4 17:12:30 10° SE 17:16:39 43° ENE 17:20:50 10° N
USA 215 4.5 17:12:18 10° NE 17:17:35 27° N 17:22:53 10° WNW
SMAP 3.0 17:13:16 10° SSE 17:17:54 80° ENE 17:22:34 10° N
IRIDIUM 104 4.4 17:13:56 10° N 17:19:10 83° W 17:24:23 10° S
Meteor 1-20 Rocket 4.5 17:15:32 10° NNW 17:20:58 72° W 17:26:25 10° S
Cosmos 2084 Rocket 4.5 17:17:24 10° NW 17:21:28 48° WSW 17:25:30 10° SSE
Cosmos 1805 4.3 17:19:40 10° NNE 17:22:02 18° ENE 17:24:23 10° ESE
Landsat 7 3.7 17:17:26 10° SSE 17:22:02 68° ENE 17:26:41 10° N
Cosmos 2297 Rocket 3.6 17:17:49 10° NW 17:23:10 43° WSW 17:28:26 10° S
GEOS 3 Rocket 3.7 17:19:29 10° NE 17:24:54 88° NW 17:30:16 10° SW
YAOGAN 1 3.7 17:21:53 10° ESE 17:25:01 20° ENE 17:28:10 10° NNE
Cosmos 1937 Rocket 4.3 17:23:15 10° SSE 17:27:38 29° E 17:30:51 16° NE
SL-16 R/B 3.9 17:26:54 10° ESE 17:29:21 13° E 17:29:26 13° E
Cosmos 990 Rocket 4.3 17:26:35 10° SSW 17:31:39 65° WNW 17:36:48 10° NNE
Okean 1-7 Rocket 4.1 17:27:44 10° NNW 17:32:04 62° W 17:36:21 10° S
CZ-2D R/B 4.3 17:29:28 10° SE 17:33:02 28° ENE 17:36:33 10° N
COSMOS 2455 3.9 17:31:23 10° SSE 17:36:08 25° ESE 17:38:36 19° ENE
SL-16 R/B 3.7 17:31:00 10° N 17:36:46 42° WNW 17:42:30 10° SW
Okean 1 3.9 17:34:03 10° SSE 17:37:12 29° E 17:38:20 24° ENE
SKYMED 2 4.0 17:35:14 12° NNE 17:39:01 41° E 17:43:06 10° S
SJ-6F 4.2 17:39:22 10° SSE 17:43:19 70° ENE 17:47:20 10° N
Cosmos 1980 Rocket 2.1 17:38:20 10° SSW 17:43:59 84° ESE 17:49:21 12° NNE
Aureole 1 Rocket 3.3 17:41:33 10° SSW 17:45:57 81° ESE 17:51:37 10° NNE
Cosmos 1844 Rocket 4.1 17:42:11 10° N 17:45:49 18° NE 17:45:49 18° NE
Cosmos 2219 3.4 17:41:00 10° NNW 17:46:36 51° ENE 17:52:11 10° SE
Meteor 1-26 Rocket 4.2 17:42:00 10° SSE 17:47:12 51° E 17:52:25 10° NNE
Cosmos 1953 Rocket 3.5 17:44:35 10° N 17:49:04 83° E 17:53:31 10° S
PSLV R/B 4.4 17:45:41 10° SE 17:49:59 26° NE 17:52:38 10° N
Helios 1A Rocket 4.4 17:51:44 16° SE 17:51:44 16° SE 17:52:50 10° SSE
ARIANE 5 R/B 2.9 17:45:58 10° S 17:50:59 68° WSW 17:56:08 10° NNW
IRS-1C 4.5 17:47:23 10° S 17:52:41 68° WSW 17:58:00 10° NNW
Cosmos 2263 Rocket 2.1 17:49:08 10° NNW 17:54:50 85° ENE 18:00:32 10° SSE
BREEZE-M DEB (TANK) 2.2 17:52:09 10° SW 17:56:39 75° SSE 17:57:13 51° E
Meteor 1-5 Rocket 4.5 17:54:06 10° NNW 17:59:27 68° W 18:04:56 10° S
BREEZE-M DEB (TANK) 4.1 17:56:04 10° WNW 17:59:49 58° NNE 18:06:53 21° E
Cosmos 1680 Rocket 4.2 17:55:31 10° N 18:00:09 31° ENE 18:00:24 31° ENE
COSMO-SKYMED 1 2.7 17:59:08 34° NE 18:00:20 44° E 18:04:16 10° S
NOAA 6 4.5 17:56:43 10° SE 18:01:20 36° ENE 18:05:59 10° N
Cosmos 2369 3.7 17:56:00 10° S 18:01:39 66° ESE 18:05:20 22° NE
Cosmos 1076 Rocket 4.0 17:59:25 10° NNW 18:03:40 61° W 18:07:54 10° S
Meteor 2-10 4.1 17:58:32 10° N 18:04:00 83° E 18:09:36 10° SSE
Cosmos 1655 Rocket 4.5 18:06:34 10° NNW 18:12:42 63° W 18:18:48 10° S
USA 81 4.0 18:07:52 10° N 18:13:09 84° W 18:18:25 10° S
Cosmos 2227 Rocket 3.7 18:09:38 10° NW 18:14:48 38° WSW 18:19:57 10° S
SPOT 1/Viking Rocket 3.5 18:09:51 10° SSE 18:15:03 85° WSW 18:20:17 10° NNW
Cosmos 2058 Rocket 3.6 18:17:52 10° SSW 18:22:16 58° W 18:26:26 12° N
OceanSat 1 rocket 4.5 18:20:04 10° SSE 18:24:45 63° ENE 18:29:24 10° N
USA 308 4.4 18:28:20 10° SSW 18:29:25 19° S 18:29:25 19° S
Cosmos 2333 Rocket 3.4 18:26:27 10° SSE 18:29:34 26° SE 18:29:34 26° SE
Meteor 2-11 Rocket 4.3 18:29:57 10° N 18:36:09 76° E 18:42:16 10° SSE
Meteor 1-14 Rocket 4.5 18:34:37 10° N 18:39:09 49° NNE 18:39:09 49° NNE
Resurs 1-3 3.9 18:37:44 10° S 18:41:59 63° W 18:46:17 10° NNW
Cosmos 2322 Rocket 4.0 18:37:31 10° SSE 18:39:03 17° SSE 18:39:03 17° SSE
USA 59 Rocket 2.4 18:44:41 10° S 18:45:01 12° S 18:45:01 12° S
USA 215 4.2 18:59:28 31° NNE 18:59:28 31° NNE 19:04:56 10° NW
S3M 3.9 18:53:10 10° S 18:59:17 74° ESE 18:59:17 74° ESE
YAOGAN 1 3.9 18:56:40 10° SSW 19:00:37 37° W 19:04:36 10° NNW
Cosmos 2082 4.5 18:58:01 10° NW 19:03:33 51° WSW 19:09:03 10° S
BREEZE-M DEB (TANK) 3.2 18:59:37 10° WSW 19:06:16 78° WSW 19:06:16 78° WSW
SL-16 R/B 2.6 19:06:53 10° SSW 19:11:20 57° SSW 19:11:20 57° SSW
Cosmos 1745 Rocket 4.0 19:12:02 10° NNW 19:18:11 73° W 19:24:16 10° S
COSMOS 2455 3.3 19:15:43 10° SW 19:21:37 57° NW 19:21:46 57° NW
Cosmos 1980 Rocket 4.5 19:24:56 10° W 19:28:42 18° NW 19:31:07 14° NNW
Cosmos 1844 Rocket 4.2 19:24:57 10° NNW 19:27:31 28° NNW 19:27:31 28° NNW
